Вернуться в каталог

NOAA 17 DEB

АктивенSSO
NORAD 48731·DEBRIS·🇺🇸 United States

Запущен Jun 24, 2002 с Vandenberg Space Force Base

Loading…

Ближайшие Пролёты (ближайшие 24 часа)

TLE

СвежийSource: Space-Track

Эпоха: Sep 14, 2026, 10:20 UTC

1 48731U 02032BQ  26257.43074044  .00003815  00000-0  10633-2 0  9990
2 48731  98.8241 245.4405 0032752  18.7243 341.5145 14.46620258286125

Отслеживайте NOAA 17 DEB в реальном времени с AllMySat

Download on the App Store